Location: Costa Valle Imagna
(45.8000°N, 9.5000°E)
Time: 18:00:32
(UTC+00:00)

Cosmos 1605 Rocket - Pass Details

Date: 17 February 2020
Orbit: 944 x 1007 km, 82.9° (Epoch: 31 March)

Event Time Altitude Azimuth Distance (km) Brightness Sun altitude
Rises 04:04:23 0° 350° (N) 3,700 7.0 -24.6°
Reaches altitude 10° 04:06:56 10° 349° (N) 2,738 6.3 -24.2°
Maximum altitude 04:13:11 78° 264° (W) 993 3.8 -23.1°
Drops below altitude 10° 04:19:18 10° 180° (S) 2,678 6.2 -22.0°
Sets 04:21:46 0° 179° (S) 3,613 7.0 -21.6°
